Volver al catálogo

ONEWEB-0542

ActivoComunicacionesPO
NORAD 54646·PAYLOAD·🇬🇧 United Kingdom

Lanzado Dec 8, 2022 desde Cape Canaveral Space Force Station

Loading…

Próximos Pases (próximas 24 horas)

TLE

ActualizadoSource: CelesTrak SupGP

Época: Sep 14, 2026, 16:56 UTC

1 54646C 22166E   26257.70605741  .00001499  00000+0  36351-2 0  2573
2 54646  87.9279 226.1559 0002365  87.2956 308.3829 13.21821712    14

Sigue ONEWEB-0542 en tiempo real con AllMySat

Download on the App Store